[[{"header":{"parameterUnit":"m.s-1","parameterCategory":2,"la1":30.2992,"la2":30.254,"lo1":-89.0895,"lo2":-89.0443,"dy":0.0025,"dx":0.0025,"nx":19,"ny":19,"refTime":"2026-03-29T09:00:00:Z","depth":"0","parameterNumber":2,"parameterNumberName":"U-component_of_CURRENTS"},"data":[0,0,0,0.1893,0.1894,0.1948,0.1948,0.1954,0.1954,0,0,0,0,0,0,0,0,0,0,0,0.1862,0.1862,0.1893,0.1894,0.1948,0.1948,0.1954,0.1954,0,0,0,0,0,0,0,0,0,0,0,0.1862,0.1862,0.1863,0.1895,0.1948,0.1948,0.1954,0.1926,0,0,0,0,0,0,0,0,0,0,0.1881,0.1862,0.1862,0.1863,0.1895,0.1948,0.1948,0.1925,0.1928,0.1915,0,0.1924,0,0.1948,0.1954,0.1954,0,0,0,0.1884,0.186,0.1882,0.1863,0.1896,0.1948,0.1921,0.1927,0.193,0.1918,0.1925,0.1926,0.1948,0.1954,0.1954,0.1969,0.1969,0,0,0.1881,0.1863,0.1881,0.1884,0.191,0.1919,0.1923,0.1929,0.1926,0.1925,0.1927,0.1948,0.1954,0.1954,0.1969,0.1969,0,0,0,0.1879,0.186,0.1884,0.1883,0.1903,0.1921,0.1925,0.1925,0.1936,0.1927,0.1949,0.1954,0.1954,0.1969,0.1969,0.1989,0,0,0,0.1877,0.1861,0.1882,0.1871,0.1903,0.1924,0.192,0.1935,0.1937,0.1948,0.1954,0.1954,0.1969,0.1969,0.1988,0.1997,0,0,0,0.1859,0.1859,0.1867,0.187,0.1901,0.1924,0.1935,0.1936,0.195,0.1954,0.1954,0.1968,0.1969,0.1987,0.1995,0.2061,0,0,0,0.1836,0.1829,0.1867,0.1865,0.19,0.1921,0.1935,0.1949,0.1952,0.1954,0.1969,0.1969,0.1987,0.1995,0.2059,0.2099,0.2111,0,0,0.1811,0.1825,0.1825,0.186,0.1877,0.1913,0.1936,0.1951,0.1954,0.1959,0.196,0.1988,0.1995,0.2061,0.2124,0.2135,0,0,0,0.1806,0.1805,0.1814,0.1839,0.1871,0.1918,0.1942,0.1959,0.1984,0.1962,0.1991,0.1995,0.2036,0.2056,0.2065,0.2095,0.1971,0.1971,0.1971,0.1746,0.1778,0.1783,0.1827,0.1855,0.1921,0.1957,0.199,0.1983,0.2004,0.2013,0.2078,0.2098,0.2105,0.2135,0.2016,0.2016,0.2016,0.2016,0.1717,0.1724,0.1776,0.1792,0.1861,0.1897,0.1979,0.2004,0.2067,0.2037,0.2077,0.2077,0.2116,0.2145,0.2017,0.2017,0.2017,0.2017,0.2017,0.1684,0.1692,0.1712,0.1763,0.1821,0.1897,0.198,0.2039,0.2085,0.2122,0.2177,0.2177,0.2204,0.2155,0.2155,0.2156,0.2156,0.2156,0.2157,0.1644,0.1665,0.1677,0.1732,0.1769,0.1856,0.1981,0.2054,0.2172,0.2209,0.221,0.2232,0.2121,0.2118,0.2162,0.2161,0.216,0.216,0.2159,0.1596,0.1615,0.1629,0.1654,0.1733,0.1776,0.1928,0.2105,0.2212,0.2281,0.2359,0.2271,0.2278,0.2271,0.2271,0.2353,0.2353,0.2353,0.2353,0.1565,0.1574,0.1575,0.1592,0.1649,0.1729,0.182,0.2018,0.2285,0.2403,0.2455,0.2421,0.2412,0.2425,0.2414,0.2416,0.2533,0.2533,0.2533,0.154,0.1547,0.1521,0.1533,0.1583,0.1654,0.1699,0.188,0.2309,0.2541,0.2493,0.2485,0.2433,0.2416,0.2428,0.2411,0.2411,0,0]},{"header":{"parameterUnit":"m.s-1","parameterCategory":2,"la1":30.2992,"la2":30.254,"lo1":-89.0895,"lo2":-89.0443,"dy":0.0025,"dx":0.0025,"nx":19,"ny":19,"refTime":"2026-03-29T09:00:00:Z","depth":"0","parameterNumber":3,"parameterNumberName":"V-component_of_CURRENTS"},"data":[0,0,0,-0.0123,-0.0125,-0.02,-0.0201,-0.0298,-0.0299,0,0,0,0,0,0,0,0,0,0,0,-0.0095,-0.0095,-0.0123,-0.0125,-0.02,-0.0201,-0.0298,-0.0299,0,0,0,0,0,0,0,0,0,0,0,-0.0094,-0.0095,-0.0095,-0.0125,-0.02,-0.0201,-0.0298,-0.0242,0,0,0,0,0,0,0,0,0,0,-0.0169,-0.0137,-0.0095,-0.0095,-0.0125,-0.02,-0.0201,-0.0239,-0.0245,-0.0262,0,-0.027,0,-0.0286,-0.0305,-0.0305,0,0,0,-0.0131,-0.0131,-0.0155,-0.0095,-0.0126,-0.02,-0.0168,-0.0243,-0.025,-0.027,-0.0271,-0.0275,-0.0287,-0.0305,-0.0306,-0.0321,-0.0321,0,0,-0.0127,-0.0108,-0.015,-0.0159,-0.0141,-0.0165,-0.017,-0.0247,-0.025,-0.0271,-0.0277,-0.0289,-0.0306,-0.0307,-0.0322,-0.0321,0,0,0,-0.0111,-0.0105,-0.0127,-0.0155,-0.0168,-0.0167,-0.0173,-0.0247,-0.0255,-0.0278,-0.029,-0.0307,-0.0308,-0.0322,-0.0321,-0.0222,0,0,0,-0.0108,-0.0095,-0.0125,-0.0114,-0.0167,-0.0207,-0.0171,-0.0249,-0.0259,-0.0289,-0.0307,-0.0309,-0.0323,-0.0322,-0.0226,-0.0158,0,0,0,-0.0092,-0.0094,-0.0101,-0.0113,-0.0144,-0.0207,-0.0219,-0.0252,-0.0265,-0.0305,-0.0309,-0.0323,-0.0322,-0.023,-0.0165,-0.0097,0,0,0,-0.0072,-0.0067,-0.0101,-0.0098,-0.0143,-0.0163,-0.0219,-0.025,-0.028,-0.0307,-0.0323,-0.0321,-0.0231,-0.0169,-0.0102,-0.0029,-0.0002,0,0,-0.005,-0.0064,-0.0061,-0.0093,-0.0091,-0.0153,-0.0137,-0.0207,-0.0265,-0.03,-0.0301,-0.0225,-0.0165,-0.0098,0.004,0.0065,0,0,0,-0.0044,-0.0036,-0.0044,-0.0052,-0.0084,-0.0075,-0.015,-0.0169,-0.0202,-0.0277,-0.0228,-0.0193,-0.0154,-0.0121,-0.0101,-0.018,-0.0316,-0.0316,-0.0316,0.0024,0.0006,0.0029,0.0013,0.0005,-0.0029,-0.0023,-0.0059,-0.0145,-0.0138,-0.0116,0.0001,0.0037,0.0053,-0.0029,-0.0134,-0.0134,-0.0134,-0.0133,0.0089,0.0111,0.0105,0.0119,0.0118,0.0127,0.0109,0.0067,0.0072,-0.0018,0.0014,-0.0022,0.0082,-0.0015,-0.0127,-0.0128,-0.0129,-0.013,-0.013,0.0146,0.0159,0.0164,0.0207,0.0253,0.0238,0.0318,0.026,0.0185,0.0212,0.022,0.0219,0.0138,0.021,0.0211,0.0212,0.0212,0.0213,0.0213,0.0201,0.0212,0.0265,0.0303,0.0352,0.0418,0.043,0.0447,0.042,0.0358,0.0357,0.0179,0.0106,0.0097,0.0223,0.0221,0.022,0.0219,0.0218,0.0267,0.0273,0.0364,0.0418,0.0534,0.0656,0.065,0.0697,0.0678,0.069,0.0433,0.0431,0.0411,0.0394,0.0391,0.0586,0.0586,0.0586,0.0586,0.0321,0.0326,0.0461,0.057,0.0697,0.0772,0.0933,0.094,0.0766,0.0652,0.0538,0.0452,0.0441,0.0415,0.0397,0.0391,0.0581,0.0581,0.058,0.038,0.0417,0.0527,0.0622,0.0766,0.0907,0.1069,0.1146,0.0845,0.0566,0.0418,0.0418,0.0271,0.0259,0.0194,0.0175,0.0154,0,0]}],[{"header":{"parameterUnit":"m.s-1","parameterCategory":2,"la1":30.2992,"la2":30.254,"lo1":-89.0895,"lo2":-89.0443,"dy":0.0025,"dx":0.0025,"nx":19,"ny":19,"refTime":"2026-03-29T09:00:00:Z","depth":"2","parameterNumber":2,"parameterNumberName":"U-component_of_CURRENTS"},"data":[0,0,0,0.1974,0.1975,0.2032,0.2032,0.2049,0.2049,0,0,0,0,0,0,0,0,0,0,0,0.1942,0.1942,0.1974,0.1975,0.2032,0.2032,0.2049,0.2049,0,0,0,0,0,0,0,0,0,0,0,0.1942,0.1942,0.1942,0.1976,0.2032,0.2032,0.2049,0.2018,0,0,0,0,0,0,0,0,0,0,0.1969,0.1949,0.1942,0.1942,0.1976,0.2032,0.2032,0.2017,0.2019,0.2011,0,0.202,0,0.2044,0.205,0.205,0,0,0,0.1966,0.1946,0.1968,0.1943,0.1977,0.2032,0.2004,0.2019,0.2022,0.2014,0.202,0.2022,0.2044,0.205,0.205,0.2073,0.2073,0,0,0.1963,0.1945,0.1965,0.197,0.1991,0.2002,0.2005,0.2021,0.2019,0.202,0.2023,0.2044,0.205,0.205,0.2073,0.2073,0,0,0,0.196,0.1943,0.1965,0.1968,0.1988,0.2004,0.2008,0.2018,0.2027,0.2023,0.2044,0.205,0.205,0.2073,0.2073,0.2089,0,0,0,0.1958,0.1943,0.1963,0.1953,0.1988,0.2012,0.2004,0.2026,0.2029,0.2044,0.205,0.205,0.2073,0.2073,0.2088,0.209,0,0,0,0.1939,0.1941,0.1949,0.1952,0.1983,0.2012,0.2022,0.2027,0.2042,0.205,0.205,0.2072,0.2073,0.2088,0.2089,0.2139,0,0,0,0.1918,0.191,0.1948,0.1947,0.1983,0.2007,0.2022,0.2041,0.2047,0.205,0.2073,0.2073,0.2087,0.2089,0.2137,0.2145,0.2152,0,0,0.1893,0.1907,0.1907,0.1943,0.1961,0.1999,0.2026,0.2045,0.205,0.2061,0.2062,0.2089,0.2089,0.2138,0.2168,0.2174,0,0,0,0.1889,0.1888,0.1898,0.1924,0.1958,0.2007,0.2035,0.2054,0.2081,0.2059,0.2092,0.2092,0.2123,0.2125,0.213,0.2075,0.2075,0.2075,0.2075,0.1827,0.186,0.1867,0.1913,0.1943,0.2013,0.2048,0.2083,0.2082,0.2103,0.2108,0.2158,0.216,0.2164,0.2114,0.2114,0.2114,0.2114,0.2115,0.1796,0.1803,0.1859,0.1876,0.1948,0.1986,0.207,0.2095,0.215,0.213,0.216,0.2144,0.217,0.2116,0.2116,0.2115,0.2115,0.2115,0.2115,0.176,0.1768,0.179,0.1844,0.1904,0.1983,0.2057,0.2117,0.216,0.2189,0.2216,0.2215,0.2179,0.2215,0.2216,0.2216,0.2216,0.2216,0.2216,0.1715,0.1739,0.1752,0.181,0.1848,0.1929,0.2049,0.2108,0.2203,0.2235,0.2235,0.2193,0.219,0.2186,0.222,0.2219,0.2219,0.2218,0.2218,0.1665,0.1686,0.17,0.1727,0.1801,0.1829,0.1975,0.2112,0.2204,0.2251,0.2275,0.2272,0.2274,0.2269,0.2267,0.2321,0.2321,0.2321,0.2321,0.1633,0.1643,0.1644,0.1658,0.1703,0.1772,0.1819,0.1951,0.2132,0.2197,0.2201,0.2157,0.2158,0.2149,0.2147,0.2141,0.2162,0.2161,0.2161,0.1607,0.1615,0.1586,0.1594,0.1632,0.1679,0.1675,0.1721,0.1931,0.2147,0.21,0.2324,0.2272,0.2267,0.2263,0.2257,0.2251,0,0]},{"header":{"parameterUnit":"m.s-1","parameterCategory":2,"la1":30.2992,"la2":30.254,"lo1":-89.0895,"lo2":-89.0443,"dy":0.0025,"dx":0.0025,"nx":19,"ny":19,"refTime":"2026-03-29T09:00:00:Z","depth":"2","parameterNumber":3,"parameterNumberName":"V-component_of_CURRENTS"},"data":[0,0,0,-0.017,-0.0171,-0.0247,-0.0247,-0.0345,-0.0345,0,0,0,0,0,0,0,0,0,0,0,-0.0141,-0.0141,-0.017,-0.0171,-0.0247,-0.0247,-0.0344,-0.0345,0,0,0,0,0,0,0,0,0,0,0,-0.0141,-0.0141,-0.0141,-0.0172,-0.0247,-0.0247,-0.0344,-0.0289,0,0,0,0,0,0,0,0,0,0,-0.0216,-0.0184,-0.0141,-0.0141,-0.0172,-0.0247,-0.0247,-0.0286,-0.0292,-0.0308,0,-0.0314,0,-0.0331,-0.0351,-0.0351,0,0,0,-0.0178,-0.0179,-0.0201,-0.0141,-0.0173,-0.0247,-0.0215,-0.029,-0.0296,-0.0316,-0.0316,-0.032,-0.0332,-0.0352,-0.0352,-0.0363,-0.0363,0,0,-0.0174,-0.0156,-0.0196,-0.0205,-0.0185,-0.0212,-0.0217,-0.0294,-0.0297,-0.0316,-0.0322,-0.0334,-0.0352,-0.0353,-0.0364,-0.0363,0,0,0,-0.0157,-0.0153,-0.0173,-0.0201,-0.0214,-0.0214,-0.022,-0.0294,-0.0301,-0.0323,-0.0335,-0.0353,-0.0354,-0.0364,-0.0363,-0.0266,0,0,0,-0.0155,-0.0143,-0.0171,-0.0161,-0.0212,-0.0254,-0.0218,-0.0295,-0.0305,-0.0334,-0.0353,-0.0355,-0.0365,-0.0364,-0.027,-0.0206,0,0,0,-0.0138,-0.0141,-0.0148,-0.016,-0.019,-0.0253,-0.0265,-0.0298,-0.0312,-0.0352,-0.0355,-0.0365,-0.0364,-0.0274,-0.0213,-0.016,0,0,0,-0.012,-0.0112,-0.0147,-0.0141,-0.0189,-0.0207,-0.0265,-0.0295,-0.0324,-0.0353,-0.0365,-0.0363,-0.0275,-0.0217,-0.0164,-0.0108,-0.0084,0,0,-0.0095,-0.0109,-0.0104,-0.0137,-0.0133,-0.0197,-0.018,-0.0252,-0.0308,-0.0343,-0.0343,-0.0269,-0.0213,-0.0161,-0.0034,-0.0012,0,0,0,-0.0086,-0.0077,-0.0084,-0.0092,-0.0123,-0.0118,-0.0192,-0.0212,-0.0245,-0.0319,-0.027,-0.0238,-0.0208,-0.0183,-0.0165,-0.0357,-0.0357,-0.0358,-0.0358,-0.0018,-0.0035,-0.0011,-0.0026,-0.0034,-0.007,-0.0067,-0.0105,-0.0187,-0.0179,-0.0161,-0.0053,-0.0026,-0.0012,-0.0175,-0.0175,-0.0175,-0.0174,-0.0174,0.0048,0.007,0.0062,0.0078,0.0074,0.0082,0.0061,0.0019,0.0019,-0.0063,-0.004,-0.0084,0.0014,-0.0166,-0.0168,-0.0169,-0.017,-0.017,-0.0171,0.0103,0.0115,0.0121,0.0162,0.0205,0.0188,0.0257,0.0202,0.0126,0.0148,0.014,0.0138,0.0014,0.0141,0.0142,0.0142,0.0143,0.0143,0.0144,0.0155,0.0167,0.0218,0.0254,0.03,0.0357,0.0364,0.0371,0.0334,0.027,0.027,0.0053,0.0043,0.0032,0.0152,0.015,0.0149,0.0149,0.0148,0.0219,0.0225,0.0313,0.0363,0.0467,0.0569,0.056,0.0584,0.0558,0.0558,0.0334,0.0327,0.0303,0.0288,0.0282,0.046,0.046,0.046,0.046,0.0271,0.0275,0.0404,0.0504,0.0613,0.0673,0.0796,0.0772,0.0654,0.0558,0.0554,0.049,0.0475,0.0455,0.0435,0.043,0.0647,0.0647,0.0647,0.0326,0.0362,0.0464,0.0551,0.0674,0.0787,0.0905,0.0896,0.0719,0.0651,0.0553,0.0479,0.0368,0.0352,0.03,0.0278,0.026,0,0]}],[{"header":{"parameterUnit":"m.s-1","parameterCategory":2,"la1":30.2992,"la2":30.254,"lo1":-89.0895,"lo2":-89.0443,"dy":0.0025,"dx":0.0025,"nx":19,"ny":19,"refTime":"2026-03-29T09:00:00:Z","depth":"4","parameterNumber":2,"parameterNumberName":"U-component_of_CURRENTS"},"data":[0,0,0,0.1044,0.1048,0.1225,0.1225,0.1371,0.1372,0,0,0,0,0,0,0,0,0,0,0,0.0974,0.0975,0.1044,0.1048,0.1225,0.1226,0.1371,0.1372,0,0,0,0,0,0,0,0,0,0,0,0.0974,0.0975,0.0976,0.1049,0.1224,0.1226,0.1371,0.126,0,0,0,0,0,0,0,0,0,0,0.1099,0.1053,0.0975,0.0976,0.105,0.1224,0.1226,0.1255,0.1267,0.1266,0,0.1286,0,0.1331,0.138,0.138,0,0,0,0.1057,0.1044,0.1081,0.0976,0.1051,0.1224,0.1148,0.1262,0.1275,0.128,0.1289,0.1295,0.1334,0.138,0.1381,0.1522,0.1522,0,0,0.1047,0.1019,0.1072,0.1088,0.1087,0.1142,0.1153,0.1271,0.1284,0.1289,0.1299,0.1336,0.1381,0.1382,0.1521,0.1522,0,0,0,0.1013,0.1012,0.1049,0.1081,0.1119,0.1147,0.116,0.1279,0.1288,0.1301,0.1338,0.1382,0.1383,0.152,0.1521,0.1525,0,0,0,0.1008,0.0992,0.1044,0.1031,0.1117,0.1216,0.1164,0.128,0.1295,0.1337,0.1382,0.1384,0.1519,0.1521,0.1523,0.1539,0,0,0,0.0968,0.0988,0.1003,0.1028,0.1101,0.1215,0.1233,0.1285,0.1316,0.138,0.1384,0.1519,0.152,0.1522,0.1537,0.1616,0,0,0,0.0941,0.0951,0.1002,0.1043,0.1099,0.1194,0.1233,0.1324,0.138,0.1382,0.1519,0.1521,0.1521,0.1535,0.1614,0.1417,0,0,0,0.0932,0.095,0.0977,0.1027,0.111,0.1171,0.1263,0.1355,0.1406,0.1474,0.1479,0.1524,0.1536,0.1616,0.1524,0,0,0,0,0.0961,0.0985,0.1015,0.1091,0.1162,0.1245,0.1334,0.138,0.1491,0.1447,0.1559,0.1568,0.1618,0.1496,0.153,0.153,0.1529,0.1529,0.1529,0.0918,0.0986,0.1036,0.1123,0.1188,0.1312,0.1386,0.1475,0.1498,0.1561,0.1597,0.1696,0.1567,0.1619,0.1619,0.1619,0.1619,0.1619,0.1619,0.0919,0.0955,0.1053,0.1127,0.1225,0.1318,0.1451,0.1509,0.1647,0.1634,0.1682,0.1538,0.162,0.162,0.162,0.162,0.162,0.162,0.1619,0.0905,0.092,0.0992,0.1106,0.1227,0.1344,0.1478,0.1592,0.1678,0.1737,0.1661,0.1733,0.1706,0.1782,0.1782,0.1783,0.1783,0.1783,0.1784,0.084,0.0904,0.0971,0.1089,0.1176,0.1319,0.1524,0.1614,0.1725,0.1675,0.1769,0.1752,0.1747,0.1719,0.179,0.1789,0.1788,0.1788,0.1787,0.0805,0.0846,0.0935,0.1017,0.1191,0.1274,0.1474,0.1588,0.1681,0.1688,0.1653,0.1657,0.1653,0.1651,0.1619,0.1664,0.1661,0.1659,0,0.0766,0.0793,0.0911,0.1018,0.1123,0.1251,0.1324,0.1444,0.1544,0.1488,0.1689,0.1645,0.1647,0.1637,0.1632,0.1591,0,0,0,0.0733,0.0783,0.0852,0.0976,0.1088,0.1198,0.1339,0.1343,0.1511,0.1535,0.1603,0.1618,0.1717,0.181,0.1817,0.181,0.1767,0,0]},{"header":{"parameterUnit":"m.s-1","parameterCategory":2,"la1":30.2992,"la2":30.254,"lo1":-89.0895,"lo2":-89.0443,"dy":0.0025,"dx":0.0025,"nx":19,"ny":19,"refTime":"2026-03-29T09:00:00:Z","depth":"4","parameterNumber":3,"parameterNumberName":"V-component_of_CURRENTS"},"data":[0,0,0,0.0147,0.0146,0.0089,0.0088,0.0055,0.0055,0,0,0,0,0,0,0,0,0,0,0,0.0172,0.0172,0.0147,0.0146,0.0089,0.0088,0.0055,0.0055,0,0,0,0,0,0,0,0,0,0,0,0.0172,0.0172,0.0172,0.0146,0.0089,0.0088,0.0055,0.0086,0,0,0,0,0,0,0,0,0,0,0.0136,0.0151,0.0172,0.0172,0.0145,0.0089,0.0088,0.0087,0.0084,0.0096,0,0.0096,0,0.0078,0.0055,0.0055,0,0,0,0.0136,0.0153,0.0145,0.0172,0.0145,0.0089,0.0112,0.0085,0.0082,0.0092,0.0095,0.0094,0.0077,0.0055,0.0055,0.0066,0.0066,0,0,0.0139,0.0152,0.0147,0.0144,0.0144,0.0114,0.011,0.0083,0.0082,0.0095,0.0092,0.0077,0.0055,0.0055,0.0066,0.0066,0,0,0,0.0155,0.0154,0.0146,0.0146,0.0134,0.0112,0.0108,0.0083,0.0082,0.0092,0.0076,0.0055,0.0054,0.0065,0.0066,0.0096,0,0,0,0.0156,0.0164,0.0148,0.0153,0.0134,0.01,0.0109,0.0084,0.008,0.0077,0.0055,0.0054,0.0065,0.0066,0.0094,0.0107,0,0,0,0.0173,0.0165,0.0164,0.0154,0.0134,0.01,0.0097,0.0082,0.0072,0.0055,0.0054,0.0065,0.0065,0.0093,0.0105,0.0114,0,0,0,0.0179,0.0204,0.0165,0.0186,0.0135,0.0148,0.0096,0.0097,0.009,0.0054,0.0065,0.0066,0.0093,0.0104,0.0113,0.016,0,0,0,0.022,0.0209,0.0223,0.0187,0.021,0.0154,0.0164,0.0127,0.0095,0.0075,0.0075,0.0095,0.0105,0.0114,0.0183,0,0,0,0,0.0243,0.0248,0.0252,0.0246,0.0243,0.0213,0.018,0.0148,0.0107,0.0092,0.0095,0.01,0.0105,0.0129,0.0068,0.0068,0.0068,0.0067,0.0067,0.0288,0.0282,0.03,0.0291,0.0295,0.0256,0.0225,0.0171,0.0155,0.0133,0.0125,0.0152,0.0179,0.0124,0.0124,0.0124,0.0124,0.0125,0.0125,0.0319,0.0318,0.0311,0.0325,0.0305,0.0306,0.025,0.0215,0.0171,0.0146,0.0149,0.0159,0.0128,0.0127,0.0127,0.0126,0.0126,0.0126,0.0126,0.0318,0.0321,0.0324,0.0335,0.0335,0.0319,0.0311,0.0258,0.0199,0.0193,0.0219,0.017,0.0167,0.0202,0.0202,0.0202,0.0202,0.0202,0.0202,0.0309,0.0318,0.0335,0.0346,0.0363,0.0373,0.0347,0.0333,0.028,0.0258,0.021,0.0178,0.0175,0.0171,0.0204,0.0204,0.0203,0.0203,0.0203,0.0303,0.0318,0.0346,0.0367,0.0411,0.0426,0.0414,0.0398,0.0382,0.0354,0.0285,0.0281,0.0272,0.0267,0.0266,0.0328,0.0329,0.0329,0,0.0305,0.031,0.036,0.0404,0.0452,0.0458,0.048,0.0467,0.0394,0.0384,0.0358,0.0281,0.0277,0.0267,0.0264,0.0263,0,0,0,0.0304,0.0322,0.0359,0.041,0.047,0.0487,0.0489,0.0482,0.0402,0.0416,0.0348,0.0343,0.03,0.0209,0.0184,0.0181,0.0173,0,0]}]]